Location: Castellar de la Frontera
(36.3200°N, 5.4500°W)
Time: 00:36:18
(UTC+02:00)

ISS - Pass Details

Date: 21 July 2018
Orbit: 402 x 408 km, 51.6° (Epoch: 19 July)

Event Time Altitude Azimuth Distance (km) Brightness Sun altitude
Rises 22:48:12 0° 240° (WSW) 2,303 0.3 -13.1°
Reaches altitude 10° 22:50:19 10° 246° (WSW) 1,448 -0.7 -13.5°
Maximum altitude 22:53:28 47° 322° (NW) 541 -2.7 -14.0°
Drops below altitude 10° 22:56:38 10° 38° (NE) 1,459 -1.0 -14.5°
Sets 22:58:46 0° 45° (NE) 2,322 0.0 -14.8°
